TAR753 LIRF-DTTA

Flight info

Callsign TAR753
Flight time N/A
Altitude 33000
Route SOSAK5AXESINO8H/25 ESINO DCT ROXAN DCT QUENN DCT NOLSI UP161 TUC
Aircraft A320/M-SDE3FGHIRWY/LB1

Departure

Time N/A
Airport Rome–Fiumicino Leonardo da Vinci International Airport (LIRF)

Arrival

Time 2026-05-03 20:51
Airport Tunis Carthage International Airport (DTTA)
Time Latitude Longitude Altitude Speed Heading
2026-05-03 20:15 40.18831 11.54963 35185 ft 433 kts 202°
2026-05-03 20:15 40.13132 11.52604 35184 ft 430 kts 201°
2026-05-03 20:16 40.07419 11.50239 35177 ft 430 kts 201°
2026-05-03 20:16 40.01707 11.47880 35177 ft 430 kts 201°
2026-05-03 20:17 39.95997 11.45521 35175 ft 431 kts 201°
2026-05-03 20:17 39.90284 11.43161 35172 ft 431 kts 201°
2026-05-03 20:18 39.84559 11.40815 35165 ft 431 kts 201°
2026-05-03 20:18 39.78836 11.38477 35163 ft 431 kts 201°
2026-05-03 20:19 39.73109 11.36142 35159 ft 431 kts 201°
2026-05-03 20:19 39.67422 11.33821 35159 ft 431 kts 201°
2026-05-03 20:20 39.62631 11.31861 35160 ft 431 kts 201°
2026-05-03 20:20 39.55987 11.29157 35161 ft 431 kts 201°
2026-05-03 20:21 39.51231 11.27222 35164 ft 430 kts 201°
2026-05-03 20:21 39.45483 11.24888 35165 ft 430 kts 201°
2026-05-03 20:22 39.39809 11.22583 35169 ft 430 kts 201°
2026-05-03 20:22 39.34100 11.20285 35170 ft 430 kts 201°
2026-05-03 20:23 39.28398 11.17986 35170 ft 429 kts 201°
2026-05-03 20:23 39.22700 11.15686 35168 ft 429 kts 201°
2026-05-03 20:24 39.17007 11.13394 35172 ft 428 kts 201°
2026-05-03 20:24 39.11321 11.11114 35171 ft 428 kts 201°
2026-05-03 20:25 39.05646 11.08833 35173 ft 427 kts 201°
2026-05-03 20:25 38.99973 11.06568 35174 ft 427 kts 200°
2026-05-03 20:26 38.94303 11.04310 35174 ft 426 kts 200°
2026-05-03 20:26 38.88637 11.02036 35174 ft 425 kts 200°
2026-05-03 20:27 38.83008 10.99786 35168 ft 425 kts 200°
2026-05-03 20:27 38.77339 10.97541 35165 ft 425 kts 200°
2026-05-03 20:27 38.74516 10.96425 34905 ft 426 kts 200°
2026-05-03 20:28 38.71651 10.95290 34134 ft 431 kts 200°
2026-05-03 20:28 38.68798 10.94159 33603 ft 428 kts 200°
2026-05-03 20:28 38.65963 10.93033 33093 ft 425 kts 200°
2026-05-03 20:28 38.63154 10.91920 32585 ft 422 kts 200°
2026-05-03 20:29 38.60361 10.90815 32079 ft 419 kts 200°
2026-05-03 20:29 38.57584 10.89718 31580 ft 416 kts 200°
2026-05-03 20:29 38.54829 10.88631 31098 ft 414 kts 200°
2026-05-03 20:29 38.52089 10.87553 30621 ft 412 kts 200°
2026-05-03 20:30 38.49354 10.86478 30129 ft 410 kts 200°
2026-05-03 20:30 38.46643 10.85412 29635 ft 406 kts 200°
2026-05-03 20:30 38.43953 10.84351 29179 ft 402 kts 200°
2026-05-03 20:30 38.41290 10.83301 28739 ft 399 kts 200°
2026-05-03 20:31 38.38647 10.82260 28290 ft 395 kts 200°
2026-05-03 20:31 38.36026 10.81231 27858 ft 392 kts 200°
2026-05-03 20:31 38.33425 10.80213 27424 ft 390 kts 200°
2026-05-03 20:31 38.30875 10.79217 26991 ft 388 kts 200°
2026-05-03 20:32 38.28289 10.78205 26547 ft 386 kts 200°
2026-05-03 20:32 38.25720 10.77196 26097 ft 384 kts 201°
2026-05-03 20:32 38.23149 10.76188 25629 ft 384 kts 200°
2026-05-03 20:32 38.20631 10.75203 25162 ft 383 kts 201°
2026-05-03 20:33 38.18068 10.74201 24689 ft 383 kts 201°
2026-05-03 20:33 38.15541 10.73208 24207 ft 383 kts 201°
2026-05-03 20:33 38.12985 10.72203 23719 ft 383 kts 201°
2026-05-03 20:33 38.10416 10.71201 23170 ft 383 kts 200°
2026-05-03 20:34 38.07873 10.70215 22693 ft 381 kts 200°
2026-05-03 20:34 38.05379 10.69249 22269 ft 377 kts 200°
2026-05-03 20:34 38.02870 10.68278 21871 ft 374 kts 200°
2026-05-03 20:34 38.00387 10.67317 21380 ft 372 kts 200°
2026-05-03 20:35 37.97925 10.66362 20901 ft 371 kts 200°
2026-05-03 20:35 37.95476 10.65408 20579 ft 365 kts 201°
2026-05-03 20:35 37.93060 10.64469 20136 ft 363 kts 201°
2026-05-03 20:35 37.90649 10.63533 19694 ft 361 kts 200°
2026-05-03 20:36 37.88249 10.62604 19274 ft 359 kts 201°
2026-05-03 20:36 37.85874 10.61650 18851 ft 357 kts 201°
2026-05-03 20:36 37.83521 10.60672 18445 ft 355 kts 202°
2026-05-03 20:36 37.81179 10.59686 17984 ft 354 kts 202°
2026-05-03 20:37 37.78858 10.58710 17542 ft 352 kts 202°
2026-05-03 20:37 37.76534 10.57739 17114 ft 349 kts 202°
2026-05-03 20:37 37.74230 10.56779 16702 ft 347 kts 202°
2026-05-03 20:37 37.71943 10.55827 16315 ft 345 kts 202°
2026-05-03 20:38 37.69668 10.54883 15925 ft 343 kts 202°
2026-05-03 20:38 37.67411 10.53950 15544 ft 340 kts 201°
2026-05-03 20:38 37.65166 10.53021 15173 ft 338 kts 201°
2026-05-03 20:38 37.62938 10.52100 14806 ft 335 kts 201°
2026-05-03 20:39 37.60732 10.51188 14449 ft 333 kts 201°
2026-05-03 20:39 37.58540 10.50285 14102 ft 330 kts 201°
2026-05-03 20:39 37.56369 10.49393 13723 ft 327 kts 201°
2026-05-03 20:39 37.54210 10.48507 13309 ft 325 kts 201°
2026-05-03 20:40 37.52063 10.47626 12883 ft 323 kts 201°
2026-05-03 20:40 37.49931 10.46751 12465 ft 322 kts 201°
2026-05-03 20:40 37.47808 10.45880 12042 ft 320 kts 201°
2026-05-03 20:40 37.45702 10.45014 11624 ft 318 kts 201°
2026-05-03 20:41 37.43599 10.44150 11209 ft 316 kts 201°
2026-05-03 20:41 37.41527 10.43299 10980 ft 308 kts 201°
2026-05-03 20:41 37.39523 10.42478 10802 ft 298 kts 201°
2026-05-03 20:41 37.37566 10.41678 10482 ft 295 kts 201°
2026-05-03 20:42 37.35648 10.40892 10133 ft 293 kts 201°
2026-05-03 20:42 37.33719 10.40102 9744 ft 291 kts 201°
2026-05-03 20:42 37.31771 10.39300 9320 ft 290 kts 201°
2026-05-03 20:42 37.29863 10.38514 8904 ft 288 kts 201°
2026-05-03 20:43 37.27985 10.37742 8474 ft 287 kts 201°
2026-05-03 20:43 37.26092 10.36965 8069 ft 286 kts 200°
2026-05-03 20:43 37.24206 10.36194 7660 ft 284 kts 200°
2026-05-03 20:43 37.22303 10.35419 7250 ft 283 kts 200°
2026-05-03 20:44 37.20454 10.34667 6858 ft 282 kts 200°
2026-05-03 20:44 37.18590 10.33908 6462 ft 281 kts 199°
2026-05-03 20:44 37.16736 10.33151 6044 ft 279 kts 199°
2026-05-03 20:44 37.14893 10.32399 5637 ft 277 kts 199°
2026-05-03 20:45 37.13058 10.31653 5093 ft 281 kts 199°
2026-05-03 20:45 37.11158 10.30882 4331 ft 292 kts 198°
2026-05-03 20:45 37.09213 10.30095 3820 ft 291 kts 198°
2026-05-03 20:45 37.07324 10.29329 3644 ft 278 kts 198°
2026-05-03 20:46 37.05538 10.28603 3515 ft 260 kts 198°
2026-05-03 20:46 37.03880 10.27929 3406 ft 235 kts 198°
2026-05-03 20:46 37.02374 10.27396 3242 ft 219 kts 193°
2026-05-03 20:46 37.00905 10.27001 2869 ft 212 kts 192°
2026-05-03 20:47 36.99510 10.26630 2581 ft 202 kts 192°
2026-05-03 20:47 36.98179 10.26267 2354 ft 189 kts 191°
2026-05-03 20:47 36.96965 10.25935 2087 ft 168 kts 191°
2026-05-03 20:47 36.95889 10.25641 1880 ft 150 kts 189°
2026-05-03 20:48 36.94904 10.25372 1685 ft 141 kts 190°
2026-05-03 20:48 36.93951 10.25112 1505 ft 137 kts 189°
2026-05-03 20:48 36.93030 10.24861 1322 ft 134 kts 189°
2026-05-03 20:48 36.92118 10.24612 1143 ft 134 kts 189°
2026-05-03 20:49 36.91209 10.24364 964 ft 134 kts 189°
2026-05-03 20:49 36.90300 10.24116 769 ft 135 kts 188°
2026-05-03 20:49 36.89380 10.23871 584 ft 136 kts 189°
2026-05-03 20:49 36.88452 10.23615 430 ft 135 kts 188°
2026-05-03 20:50 36.87531 10.23359 240 ft 137 kts 188°
2026-05-03 20:50 36.86596 10.23106 85 ft 136 kts 186°
2026-05-03 20:50 36.85705 10.22862 32 ft 118 kts 190°
2026-05-03 20:50 36.85067 10.22688 35 ft 71 kts 191°
2026-05-03 20:51 36.84740 10.22600 29 ft 34 kts 192°
2026-05-03 20:51 36.84570 10.22519 28 ft 18 kts 228°
2026-05-03 20:51 36.84521 10.22438 30 ft 11 kts 212°
2026-05-03 20:51 36.84482 10.22349 30 ft 13 kts 264°
2026-05-03 20:52 36.84485 10.22243 30 ft 11 kts 278°
2026-05-03 20:52 36.84498 10.22151 30 ft 10 kts 282°
2026-05-03 20:52 36.84487 10.22075 30 ft 9 kts 233°
2026-05-03 20:52 36.84454 10.22019 30 ft 7 kts 234°
2026-05-03 20:53 36.84420 10.21979 30 ft 7 kts 207°
2026-05-03 20:53 36.84366 10.21963 30 ft 10 kts 192°
2026-05-03 20:53 36.84311 10.21937 30 ft 7 kts 239°
2026-05-03 20:53 36.84320 10.21885 30 ft 6 kts 283°
2026-05-03 20:54 36.84325 10.21856 30 ft 1 kts 282°
2026-05-03 20:54 36.84325 10.21854 30 ft 0 kts 282°
2026-05-03 20:55 36.84325 10.21855 30 ft 0 kts 282°